Location: McFarlands Corners
(41.4117°N, 81.3382°W)
Time: 17:41:29
(UTC+00:00)

Vanguard 1 Rocket - Pass Details

Date: 20 February 2026
Orbit: 653 x 4214 km, 34.3° (Epoch: 8 March)

Event Time Altitude Azimuth Distance (km) Brightness Sun altitude
Rises 21:11:45 0° 269° (W) 4,919 12.1 18.6°
Reaches altitude 10° 21:14:22 10° 266° (W) 4,266 12.1 18.2°
Maximum altitude 21:26:47 64° 188° (S) 3,110 10.6 16.2°
Drops below altitude 10° 21:49:34 10° 114° (ESE) 7,251 11.7 12.5°
Sets 21:55:46 0° 113° (ESE) 8,429 11.9 11.5°
